CW9086 Weather Reports


time (UTC)temp
C
wind
direction
speed
KPH
gust
KPH
rain 1hr
cm
rain 24hr
cm
rain mn
cm
humidity
%
barometer
mb
20260503230105 20 213 4.8 19.3 0.00 0.00 0.00 59 1008.0
20260503225604 21 211 8.0 19.3 0.00 0.00 0.00 57 1008.1
20260503225104 21 212 4.8 20.9 0.00 0.00 0.00 57 1008.1
20260503224105 22 212 4.8 14.5 0.00 0.00 0.00 54 1008.1
20260503223605 22 208 4.8 14.5 0.00 0.00 0.00 52 1008.1
20260503223105 23 215 3.2 14.5 0.00 0.00 0.00 52 1008.2
20260503222604 23 212 3.2 9.7 0.00 0.00 0.00 52 1008.2
20260503222104 23 214 3.2 12.9 0.00 0.00 0.00 52 1008.3
20260503221605 23 214 4.8 12.9 0.00 0.00 0.00 51 1008.3
20260503221105 23 205 3.2 9.7 0.00 0.00 0.00 52 1008.3
20260503220604 23 211 3.2 9.7 0.00 0.00 0.00 51 1008.2
20260503220104 23 212 1.6 9.7 0.00 0.00 0.00 53 1008.3
20260503215605 23 209 1.6 16.1 0.00 0.00 0.00 54 1008.3
20260503215105 23 213 3.2 16.1 0.00 0.00 0.00 53 1008.4
20260503214604 23 211 3.2 9.7 0.00 0.00 0.00 53 1008.4
20260503214105 23 211 3.2 9.7 0.00 0.00 0.00 52 1008.4
20260503213104 23 202 4.8 14.5 0.00 0.00 0.00 52 1008.5
20260503212606 24 212 4.8 12.9 0.00 0.00 0.00 51 1008.5
20260503211605 25 213 3.2 11.3 0.00 0.00 0.00 52 1008.6
20260503211106 25 211 3.2 11.3 0.00 0.00 0.00 49 1008.6
20260503210605 26 213 3.2 11.3 0.00 0.00 0.00 48 1008.6
20260503205605 27 214 1.6 4.8 0.00 0.00 0.00 48 1008.6
20260503205104 27 212 0.0 4.8 0.00 0.00 0.00 47 1008.5
20260503204604 27 212 1.6 4.8 0.00 0.00 0.00 47 1008.6
20260503204106 28 211 1.6 3.2 0.00 0.00 0.00 45 1008.7
20260503203104 29 195 1.6 4.8 0.00 0.00 0.00 44 1008.7
20260503202604 30 207 3.2 4.8 0.00 0.00 0.00 42 1008.7
20260503202104 30 214 3.2 8.0 0.00 0.00 0.00 37 1008.7
20260503201604 30 212 3.2 8.0 0.00 0.00 0.00 37 1008.8
20260503201105 30 210 1.6 8.0 0.00 0.00 0.00 39 1008.8
20260503200605 30 213 3.2 8.0 0.00 0.00 0.00 40 1008.9
20260503200106 30 214 1.6 4.8 0.00 0.00 0.00 39 1009.0
20260503195605 30 212 1.6 8.0 0.00 0.00 0.00 40 1009.1
20260503195105 29 213 3.2 8.0 0.00 0.00 0.00 40 1009.1
20260503194605 29 215 3.2 11.3 0.00 0.00 0.00 42 1009.1
20260503194105 29 207 3.2 14.5 0.00 0.00 0.00 39 1009.3
20260503193606 29 211 3.2 14.5 0.00 0.00 0.00 40 1009.3
20260503193105 29 216 1.6 9.7 0.00 0.00 0.00 40 1009.4
20260503192104 28 214 3.2 9.7 0.00 0.00 0.00 40 1009.5
20260503191604 28 216 1.6 11.3 0.00 0.00 0.00 40 1009.5
20260503190606 28 212 4.8 14.5 0.00 0.00 0.00 40 1009.6
20260503190105 28 213 3.2 11.3 0.00 0.00 0.00 41 1009.5
20260503185604 28 214 3.2 9.7 0.00 0.00 0.00 42 1009.6
20260503184105 27 215 3.2 12.9 0.00 0.00 0.00 42 1009.6
20260503183605 27 212 3.2 16.1 0.00 0.00 0.00 41 1009.6
20260503183108 27 214 4.8 16.1 0.00 0.00 0.00 41 1009.6
20260503182605 27 211 4.8 16.1 0.00 0.00 0.00 42 1009.7
20260503182104 27 213 4.8 14.5 0.00 0.00 0.00 41 1009.7
20260503181606 27 213 1.6 12.9 0.00 0.00 0.00 42 1009.7
20260503180606 27 216 1.6 9.7 0.00 0.00 0.00 44 1009.8
20260503180105 27 212 3.2 9.7 0.00 0.00 0.00 43 1009.8
20260503175604 27 214 1.6 8.0 0.00 0.00 0.00 43 1009.9
20260503175104 27 214 1.6 9.7 0.00 0.00 0.00 44 1009.9
20260503174604 27 213 3.2 9.7 0.00 0.00 0.00 45 1009.9
20260503174104 26 216 3.2 8.0 0.00 0.00 0.00 48 1010.0
20260503173605 26 213 1.6 8.0 0.00 0.00 0.00 45 1010.0
20260503173104 26 213 1.6 8.0 0.00 0.00 0.00 46 1010.0
20260503172604 26 213 3.2 8.0 0.00 0.00 0.00 46 1009.9
20260503172104 26 212 1.6 8.0 0.00 0.00 0.00 47 1010.0
20260503171104 26 212 1.6 9.7 0.00 0.00 0.00 47 1010.0
20260503170604 25 211 3.2 9.7 0.00 0.00 0.00 46 1010.0
20260503170104 25 212 0.0 9.7 0.00 0.00 0.00 50 1010.0
20260503150604 19 213 1.6 8.0 0.00 0.00 0.00 65 1010.3
20260503150103 18 213 1.6 8.0 0.00 0.00 0.00 65 1010.3
20260503131103 12 216 1.6 4.8 0.00 0.00 0.00 87 1009.9
20260503130605 12 215 0.0 4.8 0.00 0.00 0.00 88 1009.9
20260503130103 12 216 0.0 4.8 0.00 0.00 0.00 89 1009.9
20260503120105 11 212 0.0 4.8 0.00 0.00 0.00 91 1010.0
20260503110603 11 212 0.0 4.8 0.00 0.00 0.00 91 1010.3
20260503110104 11 212 0.0 4.8 0.00 0.00 0.00 91 1010.3
20260503100104 7 212 0.0 0.0 0.00 0.00 0.00 89 1010.8
20260503081605 8 212 0.0 0.0 0.00 0.00 0.00 89 1011.5
20260503081105 8 212 0.0 0.0 0.00 0.00 0.00 89 1011.6
20260503080605 8 212 0.0 0.0 0.00 0.00 0.00 89 1011.6
20260503080105 8 212 0.0 0.0 0.00 0.00 0.00 89 1011.5
20260503072606 8 212 0.0 0.0 0.00 0.00 0.00 88 1011.8
20260503072106 8 212 0.0 0.0 0.00 0.00 0.00 88 1011.8
20260503071109 8 212 0.0 0.0 0.00 0.00 0.00 89 1011.9
20260503070604 8 212 0.0 0.0 0.00 0.00 0.00 89 1011.9
20260503070105 8 212 0.0 0.0 0.00 0.00 0.00 88 1012.0
20260503060106 10 212 0.0 0.0 0.00 0.00 0.00 89 1012.4
20260503055105 10 212 0.0 0.0 0.00 0.00 0.00 89 1012.3
20260503054607 10 212 0.0 0.0 0.00 0.00 0.00 89 1012.3
20260503054105 10 212 0.0 0.0 0.00 0.00 0.00 89 1012.4
20260503053606 10 212 0.0 1.6 0.00 0.00 0.00 89 1012.4
20260503053105 10 212 0.0 1.6 0.00 0.00 0.00 89 1012.4
20260503052605 10 212 0.0 0.0 0.00 0.00 0.00 89 1012.5
20260503052106 10 212 0.0 0.0 0.00 0.00 0.00 89 1012.4
20260503051605 10 212 0.0 1.6 0.00 0.00 0.00 89 1012.4
20260503051104 10 212 0.0 1.6 0.00 0.00 0.00 89 1012.3
20260503050606 10 212 0.0 1.6 0.00 0.00 0.00 89 1012.3
20260503050105 10 212 0.0 1.6 0.00 0.00 0.00 89 1012.3
20260503045606 10 212 0.0 4.8 0.00 0.00 0.00 88 1012.3
20260503045104 10 212 0.0 4.8 0.00 0.00 0.00 88 1012.3
20260503044606 10 212 0.0 3.2 0.00 0.00 0.00 88 1012.3
20260503043604 10 212 0.0 3.2 0.00 0.00 0.00 88 1012.1
20260503043105 10 212 0.0 3.2 0.00 0.00 0.00 88 1012.1
20260503042604 10 212 0.0 4.8 0.00 0.00 0.00 88 1012.1
20260503042104 10 212 0.0 4.8 0.00 0.00 0.00 88 1012.0
20260503041104 10 212 0.0 4.8 0.00 0.00 0.00 88 1011.8
20260503040106 10 212 1.6 4.8 0.00 0.00 0.00 88 1011.6
20260503035605 10 212 1.6 4.8 0.00 0.00 0.00 88 1011.5
20260503034605 10 197 1.6 4.8 0.00 0.00 0.00 87 1011.5
20260503034105 10 212 1.6 4.8 0.00 0.00 0.00 87 1011.3
20260503033104 11 213 1.6 4.8 0.00 0.00 0.00 87 1011.3
20260503032604 11 212 0.0 4.8 0.00 0.00 0.00 87 1011.3
20260503032104 11 212 1.6 4.8 0.00 0.00 0.00 86 1011.3
20260503031605 11 212 0.0 4.8 0.00 0.00 0.00 86 1011.3
20260503031104 11 213 1.6 9.7 0.00 0.00 0.00 86 1011.3
20260503030604 11 211 1.6 9.7 0.00 0.00 0.00 86 1011.3
20260503030105 11 211 3.2 9.7 0.00 0.00 0.00 85 1011.2
20260503025604 11 212 0.0 4.8 0.00 0.00 0.00 85 1011.3
20260503025104 11 212 0.0 8.0 0.00 0.00 0.00 85 1011.3
20260503024604 11 212 3.2 8.0 0.00 0.00 0.00 84 1011.3
20260503024105 11 212 1.6 9.7 0.00 0.00 0.00 84 1011.2
20260503023606 11 212 3.2 9.7 0.00 0.00 0.00 84 1011.4
20260503023105 12 213 0.0 4.8 0.00 0.00 0.00 84 1011.4
20260503022605 12 213 1.6 4.8 0.00 0.00 0.00 83 1011.4
20260503022106 12 212 1.6 14.5 0.00 0.00 0.00 82 1011.3
20260503021104 12 213 1.6 8.0 0.00 0.00 0.00 81 1011.5
20260503020105 13 212 1.6 4.8 0.00 0.00 0.00 81 1011.5
20260503015605 13 210 0.0 8.0 0.00 0.00 0.00 80 1011.5
20260503015105 13 213 3.2 8.0 0.00 0.00 0.00 79 1011.5
20260503014604 13 212 1.6 14.5 0.00 0.00 0.00 79 1011.5
20260503014105 13 214 3.2 14.5 0.00 0.00 0.00 79 1011.5
20260503013604 14 213 1.6 9.7 0.00 0.00 0.00 78 1011.4
20260503013105 14 214 3.2 9.7 0.00 0.00 0.00 78 1011.6
20260503012605 14 210 3.2 9.7 0.00 0.00 0.00 78 1011.5
20260503012105 15 213 1.6 11.3 0.00 0.00 0.00 78 1011.5
20260503011605 15 209 4.8 11.3 0.00 0.00 0.00 77 1011.5
20260503011104 15 213 1.6 8.0 0.00 0.00 0.00 77 1011.5
20260503010106 15 212 1.6 4.8 0.00 0.00 0.00 78 1011.6
20260503005105 15 212 3.2 9.7 0.00 0.00 0.00 77 1011.7
20260503004605 15 212 3.2 8.0 0.00 0.00 0.00 77 1011.6
20260503004108 15 212 1.6 12.9 0.00 0.00 0.00 77 1011.7
20260503003605 15 210 3.2 12.9 0.00 0.00 0.00 77 1011.8
20260503002605 15 207 1.6 12.9 0.00 0.00 0.00 77 1011.8
20260503002105 15 213 3.2 12.9 0.00 0.00 0.00 76 1011.8
20260503001605 15 212 3.2 8.0 0.00 0.00 0.00 77 1011.8
20260503001105 15 213 0.0 9.7 0.00 0.00 0.00 77 1011.9
20260503000604 15 213 1.6 9.7 0.00 0.00 0.00 77 1011.9
20260502234604 15 212 4.8 12.9 0.00 0.00 0.00 77 1011.8
20260502234104 15 211 4.8 14.5 0.00 0.00 0.00 77 1011.8
20260502233105 15 214 3.2 16.1 0.00 0.00 0.00 76 1011.9
20260502232606 15 213 4.8 16.1 0.00 0.00 0.00 76 1011.9
20260502232105 15 210 4.8 12.9 0.00 0.00 0.00 76 1012.0
20260502231605 15 213 4.8 12.9 0.00 0.00 0.00 76 1012.3
20260502231104 15 214 3.2 14.5 0.00 0.00 0.00 77 1012.5
20260502230605 15 210 3.2 16.1 0.00 0.00 0.00 77 1012.7